Location: Trani
(41.2830°N, 16.4170°E)
Time: 02:37:42
(UTC+02:00)

ISS - Pass Details

Date: 15 May 2021
Orbit: 417 x 422 km, 51.6° (Epoch: 14 June)

Event Time Altitude Azimuth Distance (km) Brightness Sun altitude
Rises 00:26:23 0° 289° (WNW) 2,366 0.4 -29.6°
Reaches altitude 10° 00:29:08 10° 313° (NW) 1,504 -0.4 -29.7°
Maximum altitude 00:31:14 15° 352° (N) 1,221 -0.6 -29.7°
Drops below altitude 10° 00:33:20 10° 30° (NNE) 1,507 -0.3 -29.7°
Sets 00:36:06 0° 54° (NE) 2,373 0.5 -29.8°
